Location: Passo di Treia
(43.2833°N, 13.3333°E)
Time: 05:52:06
(UTC+00:00)

Cosmos 921 Rocket - Pass Details

Date: 09 December 2019
Orbit: 572 x 632 km, 75.8° (Epoch: 24 January)

Event Time Altitude Azimuth Distance (km) Brightness Sun altitude
Rises 17:57:04 0° 337° (NNW) 2,817 6.6 -25.7°
Reaches altitude 10° 17:59:18 10° 333° (NNW) 1,921 5.8 -26.1°
Maximum altitude 18:03:27 54° 257° (WSW) 729 3.6 -26.9°
Enters shadow 18:04:19 45° 215° (SW) 817 3.8 -27.0°
